Showing default

AAC-AIS-SAT-1, 55107

Orbit data source: Space-Track

AAC-AIS-SAT-1, 55107 is a payload satellite owned by AAC ClydeSpace (UK) in SSO that was launched on Tue, 03 Jan 2023 UTC via an FALCON 9 launch vehicle from the Air Force Eastern Test Range (AFETR). Payload-class satellites include a variety of spacecraft equipped with specific instruments for various scientific and technological missions. These include communications satellites like Starlink; space stations such as the ISS; scientific satellites like the Hubble; Earth observation satellites from companies like Planet Labs, Umbra, and HawkEye 360; GPS; miniature CubeSats for education and research; and military/defense satellites.

Loading next visibility...
Identifier
55107, 2023-001DC
Orbit
SSO
Country
Flag of UKUK
Related business
Manufacturer
AAC ClydeSpace
Mission
Operational Commercial Communications
Bus & Motor
CUBESAT 3U, Unknown motor
Mass
4 kg wet, 4 kg dry
Launch date (UTC)
2023-01-03 (3 years ago)
Launch vehicle
FALCON 9
Launch site
Air Force Eastern Test Range (AFETR)
Object type
Payload
Rocket body
Debris
Shape & HBR
Box, 1.0 m
Radar Cross Section
0.035 m², Medium (>0.1 m² and < 1m²)

Expand to show TLE details & history
Last TLE update: 1 week ago

TLE from 1 week ago
0 AAC-AIS-SAT-1
1 55107U 23001DC  26155.29588359  .00006379  00000-0  63437-3 0  9993
2 55107  97.9193 232.0005 0008215 329.1608  30.9127 14.91997981176368
Epoch: 2026-06-04T07:06Z
TLE epoch observation values (Epoch: 2026-06-04T07:06:04.342Z)
Latitude
0.00001°
Longitude
-127.25978°
Altitude
589.831 km
Speed
7.568 km/s
True Right ascension
15h 28m 00s
True Declination
0° 00' 00"
Sunlit
Object was in full shadow at epoch
Visualization orbit readout
Latitude
Unknown
Longitude
Unknown
Altitude
Unknown
Speed
Unknown
Apparent Right ascension
Unknown
Apparent Declination
Unknown
Sunlit
N/A
Visualization observer readout
Local Sidereal Time
12:34:05
Azimuth
Unknown
Elevation
Unknown
Doppler factor
Unknown
Orbital elements
Apogee altitude
594.455 km
Perigee altitude
583.009 km
Semi-major axis
6,966.869 km
Eccentricity
0.00082
Inclination
97.9193°
RAAN
232.0005°
Arg. of periapsis
329.1608°
True anomaly
30.9611°
Mean anomaly
30.9127°
Eccentric anomaly
30.9369°
Mean motion
3.73239 °/min
Orbital period
96.45 mins
BSTAR
0.00063437
Loading maneuver chart data...
Computing Atmospheric mass density...

Documentation

Showing up to 5 results
|